Location: Newark
(10.2350°N, 77.4860°E)
Time: 10:06:08
(UTC+00:00)

Envisat - Visible Passes

Search period start: 16 October 2019 00:00
Search period end: 26 October 2019 00:00
Orbit: 764 x 766 km, 98.1° (Epoch: 15 October)

Date Brightness Start Highest point End Pass type
(mag) Time Alt. Az. Time Alt. Az. Time Alt. Az.
16 Oct 2.9 13:09:27 10° SSE 13:14:30 72° ENE 13:19:33 10° N visible
17 Oct 5.6 14:13:06 10° SW 14:16:41 19° W 14:20:16 10° NW visible
18 Oct 3.8 13:35:01 10° S 13:39:58 55° W 13:44:54 10° NNW visible
19 Oct 3.1 12:58:22 10° SSE 13:03:17 52° ENE 13:08:12 10° N visible
20 Oct 5.2 14:01:14 10° SSW 14:05:25 26° W 14:09:37 10° NW visible
21 Oct 3.2 13:23:39 10° S 13:28:43 75° WSW 13:33:46 10° NNW visible
22 Oct 3.5 12:47:23 10° SE 12:52:04 38° ENE 12:56:44 10° N visible
22 Oct 6.1 14:28:50 10° SW 14:30:54 12° W 14:32:59 10° WNW visible
23 Oct 4.6 13:49:34 10° SSW 13:54:10 35° W 13:58:46 10° NW visible
24 Oct 2.9 13:12:24 10° SSE 13:17:29 81° ENE 13:22:33 10° N visible
25 Oct 5.8 14:16:23 10° SW 14:19:39 17° W 14:22:56 10° WNW visible
